Regional Weather Roundup
Issued by NWS

Home | Current Version | Previous Version | Text Only | Print | Product List | Glossary On
Versions: 1 2 3 4 5 6 7 8 9 10 11 12 13 14 15 16 17 18 19 20 21 22 23 24 25 26 27 28 29 30 31 32 33 34 35 36 37 38 39 40 41 42 43 44 45 46 47 48 49 50
000
ASCA42 TJSJ 242110
RWRPR
PUERTO RICO/U.S. VIRGIN ISLANDS HOURLY WEATHER ROUNDUP
NATIONAL WEATHER SERVICE SAN JUAN PR
500 PM AST WED MAY 24 2017

PRZ001>002-007>008-010-242200-
PUERTO RICO

CITY           SKY/WX    TMP DP  RH WIND       PRES   REMARKS
SAN JUAN LMM   MOSUNNY   88  75  66 E12       29.99F HX  97
PONCE          MOSUNNY   88  75  66 SE12      30.03  HX  97
AGUADILLA      SUNNY     84  77  79 E7        29.99F HX  94
CEIBA          CLOUDY    84  77  79 E12       30.03F HX  94
$$

VIZ001>002-242200-
U.S. VIRGIN ISLANDS

CITY           SKY/WX    TMP DP  RH WIND       PRES   REMARKS
CHARLOTTE AMA  MOSUNNY   88  75  66 SE16      30.00F HX  97
CHRISTIANSTED  MOSUNNY   84  73  70 E13       30.02S HX  91
$$

HOURLY WEATHER ROUNDUP FOR THE NEWS MEDIA

CITY           SKY/WX    TMP DP  RH WIND       PRES   REMARKS
NEW YORK       PTSUNNY   66  57  72 SE13      29.80R
NEWARK         PTSUNNY   69  50  50 E5        29.78R
CHICAGO        CLOUDY    60  50  69 NE18G26   29.54F
HARTFORD       CLOUDY    65  50  58 E8        29.78R
BOSTON         CLOUDY    60  51  72 E10       29.82R
DALLAS         MOSUNNY   81  42  25 NW14G23   29.75F
PHILADELPHIA   PTSUNNY   69  51  52 SE13      29.75S
LOS ANGELES    PTSUNNY   66  56  70 W10       29.85F
WASHINGTON DC  CLOUDY    62  56  80 SE12      29.71F


USA.gov is the U.S. government's official web portal to all federal, state and local government web resources and services.